Location: Newark
(39.6867°N, 100.6772°W)
Time: 02:50:47
(UTC+00:00)

Courier 1B - All Passes

Search period start: 20 October 2019 00:00
Search period end: 30 October 2019 00:00
Orbit: 962 x 1209 km, 28.3° (Epoch: 19 October)

Date Brightness Start Highest point End Pass type
(mag) Time Alt. Az. Time Alt. Az. Time Alt. Az.
20 Oct - 00:02:29 10° SSW 00:08:20 23° SSE 00:14:08 10° ESE daylight
20 Oct - 01:54:56 10° SW 02:01:49 34° S 02:08:31 10° ESE visible
20 Oct - 03:48:45 10° WSW 03:55:24 32° S 04:01:46 10° SE visible
20 Oct - 05:43:55 10° WSW 05:48:39 18° SSW 05:53:14 10° SSE night (unlit)
20 Oct - 23:09:29 10° SSW 23:14:38 19° SSE 23:19:48 10° ESE daylight
21 Oct - 01:01:16 10° SW 01:08:03 32° S 01:14:44 10° ESE visible
21 Oct - 02:54:47 10° WSW 03:01:39 34° S 03:08:18 10° SE visible
21 Oct - 04:49:26 10° WSW 04:55:03 22° SSW 05:00:28 10° SSE visible
21 Oct - 22:16:54 10° S 22:20:59 15° SSE 22:25:06 10° ESE daylight
22 Oct - 00:07:44 10° SW 00:14:17 30° SSE 00:20:49 10° ESE visible
22 Oct - 02:00:55 10° WSW 02:07:53 35° S 02:14:43 10° ESE visible
22 Oct - 03:55:11 10° WSW 04:01:23 27° SSW 04:07:24 10° SE visible
22 Oct - 05:52:18 10° SW 05:54:30 11° SSW 05:56:40 10° SSW night (unlit)
22 Oct - 21:25:25 10° SSE 21:27:21 11° SSE 21:29:20 10° SE daylight
22 Oct - 23:14:23 10° SW 23:20:33 26° SSE 23:26:46 10° ESE daylight
23 Oct - 01:07:07 10° WSW 01:14:05 36° S 01:21:00 10° ESE visible
23 Oct - 03:01:05 10° WSW 03:07:41 30° SSW 03:14:06 10° SE visible
23 Oct - 04:56:43 10° WSW 05:00:55 16° SSW 05:05:03 10° S visible
23 Oct - 22:21:15 10° SSW 22:26:51 22° SSE 22:32:32 10° ESE daylight
24 Oct - 00:13:27 10° SW 00:20:18 34° S 00:27:11 10° ESE visible
24 Oct - 02:07:06 10° WSW 02:13:55 33° S 02:20:39 10° SE visible
24 Oct - 04:02:01 10° WSW 04:07:19 20° SSW 04:12:29 10° SSE visible
24 Oct - 21:28:26 10° SSW 21:33:11 18° SSE 21:38:02 10° ESE daylight
24 Oct - 23:19:53 10° SW 23:26:31 32° S 23:33:16 10° ESE daylight
25 Oct - 01:13:13 10° WSW 01:20:09 35° S 01:27:03 10° ESE visible
25 Oct - 03:07:39 10° WSW 03:13:38 24° SSW 03:19:31 10° SSE visible
25 Oct - 20:36:10 10° S 20:39:35 14° SSE 20:43:03 10° SE daylight
25 Oct - 22:26:29 10° SW 22:32:47 29° SSE 22:39:14 10° ESE daylight
26 Oct - 00:19:25 10° WSW 00:26:21 36° S 00:33:20 10° ESE visible
26 Oct - 02:13:30 10° WSW 02:19:55 28° SSW 02:26:17 10° SE visible
26 Oct - 04:09:52 10° SW 04:13:09 13° SSW 04:16:24 10° S visible
26 Oct - 21:33:16 10° SSW 21:39:05 25° SSE 21:45:04 10° ESE daylight
26 Oct - 23:25:45 10° WSW 23:32:34 35° S 23:39:30 10° ESE daylight
27 Oct - 01:19:30 10° WSW 01:26:10 31° SSW 01:32:51 10° SE visible
27 Oct - 03:14:47 10° WSW 03:19:31 17° SSW 03:24:12 10° SSE visible
27 Oct - 20:40:19 10° SSW 20:45:26 20° SSE 20:50:43 10° ESE daylight
27 Oct - 22:32:12 10° SW 22:38:47 33° S 22:45:36 10° ESE daylight
28 Oct - 00:25:37 10° WSW 00:32:24 34° S 00:39:15 10° SE visible
28 Oct - 02:20:17 10° WSW 02:25:51 21° SSW 02:31:24 10° SSE visible
28 Oct - 19:47:44 10° S 19:51:50 16° SSE 19:56:04 10° ESE daylight
28 Oct - 21:38:46 10° SW 21:45:03 30° SSE 21:51:35 10° ESE daylight
28 Oct - 23:31:51 10° WSW 23:38:37 35° S 23:45:33 10° ESE daylight
29 Oct - 01:26:04 10° WSW 01:32:09 25° SSW 01:38:15 10° SE visible
29 Oct - 03:24:13 10° SW 03:25:21 10° SSW 03:26:28 10° SSW visible
29 Oct - 18:55:59 10° S 18:58:18 12° SSE 19:00:40 10° SE daylight
29 Oct - 20:45:30 10° SW 20:51:22 27° SSE 20:57:29 10° ESE daylight
29 Oct - 22:38:12 10° WSW 22:44:50 35° S 22:51:44 10° ESE daylight
